Location: Fort Worth, Tx
(32.7431°N, 97.3695°W)
Time: 23:39:22
(UTC-04:00)

Vanguard 2 - Pass Details

Date: 29 February 2024
Orbit: 552 x 2916 km, 32.9° (Epoch: 24 April)

Event Time Altitude Azimuth Distance (km) Brightness Sun altitude
Rises 19:30:33 0° 247° (WSW) 3,696 12.9 -1.7°
Reaches altitude 10° 19:32:43 10° 245° (WSW) 2,970 12.1 -2.1°
Maximum altitude 19:40:13 74° 161° (SSE) 1,617 9.2 -3.7°
Drops below altitude 10° 19:53:07 10° 80° (E) 4,896 10.9 -6.4°
Enters shadow 19:54:27 - 79° (E) 5,280 11.1 -6.7°
